This demonstration page uses our WeatherBlox Daily Observations layout. Learn more.

41.55636, -103.73856

Hourly Observations for December 13, 2015

Temp ( °F °C ) Dew Point ( °F °C ) Humidity (%) Winds ( mph kmh ) Pressure ( in mb ) Visibility ( mi km ) Precip ( " mm )
12:41 am 00:41 Clear with Mist and Fog 28 -2.2 26 -3.3 92 92 WSW 5 7 30.03 1017 1.25 2.011675 0 0
12:46 am 00:46 Mostly Cloudy with Freezing Fog 25 -4 25 -4 100 100 SW 6 9 30.09 1019 0.5 0.80467 0 0
12:53 am 00:53 Mostly Cloudy with Freezing Fog 27 -2.8 25 -3.9 92 92 SSW 5 7 29.96 1015 0.25 0.402335 0 0
1:44 am 01:44 Mostly Cloudy with Freezing Fog 19 -7 18 -8 93 93 NNW 6 9 30.12 1020 0.5 0.80467 0 0
1:51 am 01:51 Mostly Cloudy with Freezing Fog 21 -6 19 -7 93 93 N 7 11 30.09 1019 0.25 0.402335 0 0
1:53 am 01:53 Mostly Cloudy with Freezing Fog 21 -6.1 19 -7.2 92 92 N 8 13 29.96 1015 0.25 0.402335 0 0
2:03 am 02:03 Mostly Cloudy with Mist and Fog 21 -6 19 -7 93 93 N 9 15 30.09 1019 1 1.60934 0 0
2:19 am 02:19 Mostly Cloudy with Mist and Fog 23 -5 22 -5.6 96 96 N 7 11 30.09 1019 0.75 1.207005 0 0
2:53 am 02:53 Mostly Cloudy with Freezing Fog 26 -3.3 25 -3.9 96 96 NNW 6 9 29.93 1014 0.5 0.80467 0 0
3:53 am 03:53 Cloudy with Mist and Fog 28 -2.2 26 -3.3 92 92 NNW 5 7 29.89 1012 1.25 2.011675 0 0
3:59 am 03:59 Cloudy with Mist and Fog 28 -2.2 27 -2.8 96 96 N 7 11 29.97 1015 3 4.82802 0 0
4:29 am 04:29 Cloudy with Mist and Fog 29 -1.7 27 -2.8 92 92 NW 9 15 29.94 1014 1.75 2.816345 0 0
4:53 am 04:53 Mostly Cloudy with Mist and Fog 29 -1.7 28 -2.2 96 96 NW 9 15 29.86 1011 1 1.60934 0 0
5:01 am 05:01 Mostly Cloudy with Freezing Fog 29 -1.7 27 -2.8 92 92 W 6 9 29.94 1014 0.5 0.80467 0 0
5:29 am 05:29 Mostly Cloudy with Freezing Fog 28 -2.2 27 -2.8 96 96 W 8 13 29.94 1014 0.25 0.402335 0 0
5:53 am 05:53 Mostly Cloudy with Freezing Fog 28 -2.2 27 -2.8 96 96 WSW 3 6 29.9 1013 0.25 0.402335 0 0
6:22 am 06:22 Mostly Cloudy with Freezing Fog 28 -2 27 -3 93 93 NW 7 11 29.94 1014 0.5 0.80467 0 0
6:53 am 06:53 Mostly Cloudy with Freezing Fog 28 -2.2 25 -3.9 88 88 S 5 7 29.91 1013 0.5 0.80467 0 0
7:14 am 07:14 Mostly Cloudy with Freezing Fog 27 -3 27 -3 100 100 S 3 6 29.97 1015 0.25 0.402335 0 0
7:53 am 07:53 Mostly Cloudy with Freezing Fog 27 -2.8 25 -3.9 92 92 NNW 3 6 29.87 1012 0.25 0.402335 0 0
8:41 am 08:41 Mostly Cloudy with Freezing Fog 25 -3.9 24 -4.4 96 96 NNW 6 9 29.97 1015 0.25 0.402335 0 0
8:53 am 08:53 Mostly Cloudy with Freezing Fog 25 -3.9 23 -5 92 92 Calm 29.87 1012 0.5 0.80467 0 0
9:08 am 09:08 Mostly Cloudy with Mist and Fog 25 -4 25 -4 100 100 Calm 29.97 1015 2.5 4.02335 0 0
9:12 am 09:12 Partly Cloudy 25 -4 25 -4 100 100 Calm 29.97 1015 9 14.48406 0 0
9:53 am 09:53 Sunny 26 -3.3 23 -5 88 88 NNW 6 9 29.84 1010 10 16.0934 0 0
10:53 am 10:53 Sunny 28 -2.2 23 -5 81 81 NW 8 13 29.81 1010 10 16.0934 0 0
11:53 am 11:53 Sunny 31 -0.6 25 -3.9 79 79 NW 10 17 29.76 1008 10 16.0934 0 0
12:53 pm 12:53 Sunny 32 0 27 -2.8 82 82 NW 10 17 29.75 1008 10 16.0934 0 0
1:53 pm 13:53 Sunny 35 1.7 29 -1.7 78 78 WNW 6 9 29.74 1007 10 16.0934 0 0
2:53 pm 14:53 Sunny 38 3.3 30 -1.1 73 73 NW 6 9 29.7 1006 10 16.0934 0 0
3:53 pm 15:53 Sunny 31 -0.6 27 -2.8 85 85 SE 6 9 29.7 1006 10 16.0934 0 0
4:53 pm 16:53 Clear 26 -3.3 24 -4.4 92 92 E 8 13 29.7 1006 9 14.48406 0 0
5:53 pm 17:53 Clear 24 -4.4 21 -6.1 88 88 E 7 11 29.71 1006 10 16.0934 0 0
6:53 pm 18:53 Clear 22 -5.6 20 -6.7 92 92 Calm 29.72 1006 10 16.0934 0 0
7:53 pm 19:53 Clear 22 -5.6 19 -7.2 89 89 SSE 3 6 29.7 1006 10 16.0934 0 0
8:36 pm 20:36 Clear with Mist and Fog 19 -7 18 -8 93 93 W 3 6 29.83 1010 1.75 2.816345 0 0
8:49 pm 20:49 Clear with Mist and Fog 19 -7 16 -9 86 86 NNW 3 6 29.83 1010 3 4.82802 0 0
8:53 pm 20:53 Clear with Mist and Fog 19 -7.2 16 -8.9 88 88 N 5 7 29.7 1006 5 8.0467 0 0
9:53 pm 21:53 Clear 20 -6.7 17 -8.3 89 89 W 3 6 29.68 1005 8 12.87472 0 0
10:53 pm 22:53 Clear 20 -6.7 17 -8.3 89 89 Calm 29.67 1005 10 16.0934 0 0
11:53 pm 23:53 Clear 19 -7.2 15 -9.4 84 84 N 3 6 29.64 1004 10 16.0934 0 0

Powered by AerisWeather